PROPCUBE 1 (FLORA)

Last updated on Mon Sep 21 2026 00:03:44 GMT+0000 (Coordinated Universal Time)

1 40976U 15058N 26263.47293467 .00000930 00000+0 96973-4 0 9995 2 40976 64.7753 359.8134 0138651 25.1515 335.6264 14.89620571130451
UTC large
Height (km)
Speed (km/s)
/
Latitude / Longitude
Inclination (degrees)
Orbital Period (minutes)
Azimuth
Elevation
Range (km)
Doppler Factor

Next 0 passes for location: London (51.5072 / 0.1276)

No passes found over London.
PROPCUBE 1 (FLORA)